Skip Page Navigation
NASA JPL Caltech
NASA Logo - Jet Propulsion Laboratory + View the NASA Portal
+ Center for Near-Earth Object Studies
JPL Home Earth Solar System Stars & Galaxies Technology
JPL Solar System Dynamics
BODIES ORBITS EPHEMERIDES TOOLS PHYSICAL DATA DISCOVERY FAQ SITE MAP
JPL Small-Body Database Browser
Search: [ help ]  
C/1882 F1 (Wells)
Classification: Comet          SPK-ID: 1000881
Ephemeris | Orbit Diagram | Orbital Elements ]

[ show orbit diagram ]
Orbital Elements at Epoch 2408616.5 (1882-Jun-20.0) TDB
Reference: JPL 1 (heliocentric ecliptic J2000)
 Element Value Uncertainty (1-sigma)   Units 
e .9999936489823608 1.8851e-06  
a 9567.373663082217 2839.8 au
q .06076255889542537 2.9236e-07 au
i 73.79740116393303 0.00020871 deg
node 206.5897614920928 0.0002718 deg
peri 208.9846251531593 0.00015376 deg
M 9.447764624419324E-6 4.2065e-06 deg
tp 2408607.529552780363
(1882-Jun-11.02955278)
5.1514e-05 TDB
period 341812177.5305979
935830.74
1.5219e+08
4.167e+05
d
yr
n 1.053209989769232E-6 4.6893e-07 deg/d
Q 19134.68656360554 5679.7 au
  Orbit Determination Parameters
   # obs. used (total)      28  
   data-arc span      112 days  
   first obs. used      1882-04-01  
   last obs. used      1882-07-22  
   planetary ephem.      DE431  
   SB-pert. ephem.      SB431-BIG16  
   norm. resid. RMS      1.3678  
   source      ORB  
   producer      Otto Matic  
   solution date      2015-Jun-04 15:26:04  

Additional Information
 Earth MOID = .00844959 au 
 T_jup = 0.086 
[ show covariance matrix ]

Ephemeris | Orbit Diagram | Orbital Elements ]

no physical parameters available

Alternate Designations
 Perihelion 
Year
(est.)
 New-Style 
Desig
Roman
 Numeral 
Year/
 Letter 
 1882.4   C/1882 F1       
Ephemeris | Orbit Diagram | Orbital Elements ]
ABOUT SSD CREDITS/AWARDS PRIVACY/COPYRIGHT GLOSSARY LINKS
FirstGov 2020-Dec-06 02:26 UT
(server date/time)  
NASA Home Page
Site Manager:   Ryan S. Park
Webmaster  Alan B. Chamberlin